843  
AXUS43 KGID 211902  
MISGRI  
 
GID CWA HOURLY WEATHER ROUNDUP  
NATIONAL WEATHER SERVICE HASTINGS NE  
200 PM CDT TUE OCT 21 2014  
 
NOTE: "FAIR" INDICATES FEW OR NO CLOUDS BELOW 12,000 FEET WITH NO  
SIGNIFICANT WEATHER AND/OR OBSTRUCTIONS TO VISIBILITY.  
   
..SOUTH CENTRAL NEBRASKA
 
 
 
CITY SKY/WX TMP DP RH WIND PRES REMARKS  
GRAND ISLAND SUNNY 78 39 24 S16G24 30.03F  
HASTINGS SUNNY 75 36 24 SE18G26 30.03F  
KEARNEY SUNNY 73 46 38 SE18G24 30.03F  
ORD SUNNY 76 40 27 S18G26 29.99F  
YORK LGT RAIN 75 43 31 S15G21 30.04F  
AURORA HAZE 76 36 23 S15G22 30.03F VSB 3/4  
LEXINGTON SUNNY 75 51 42 S17G23 30.00F  
HOLDREGE SUNNY 73 50 45 S18G24 30.02F  
HEBRON SUNNY 76 35 22 S14 30.05F  
   
..NEBRASKA PANHANDLE
 
 
 
CITY SKY/WX TMP DP RH WIND PRES REMARKS  
CHADRON MOSUNNY 82 43 25 SW14 29.82F  
ALLIANCE SUNNY 71 48 43 S14 29.91F  
SCOTTSBLUFF SUNNY 73 45 36 SE12 29.90F  
SIDNEY SUNNY 70 48 45 S13 29.95F  
   
..WESTERN AND NORTH CENTRAL NEBRASKA
 
 
 
CITY SKY/WX TMP DP RH WIND PRES REMARKS  
VALENTINE SUNNY 76 44 32 S22G37 29.90F  
AINSWORTH SUNNY 75 37 24 S23G31 29.94F  
ONEILL SUNNY 77 41 27 S20G29 29.98F  
BROKEN BOW LGT RAIN 76 39 26 S21 29.99F  
IMPERIAL SUNNY 74 54 49 S17G28 29.95F  
NORTH PLATTE SUNNY 75 54 47 S20 29.95F  
MCCOOK SUNNY 78 56 46 S18G26 29.98F  
   
..EASTERN NEBRASKA
 
 
 
CITY SKY/WX TMP DP RH WIND PRES REMARKS  
NORFOLK SUNNY 76 45 33 S18 30.01F  
SO SIOUX CITY SUNNY 74 42 31 S12 30.04F  
TEKAMAH SUNNY 75 39 27 SE12 30.05F  
COLUMBUS SUNNY 75 45 33 S14 30.04F  
ALBION SUNNY 74 41 29 S15 30.02F  
OMAHA EPPLEY SUNNY 72 40 31 S10 30.07F  
MILLARD SUNNY 72 43 35 SE9 30.07F  
LINCOLN SUNNY 77 45 32 S10 30.06F  
NEBRASKA CITY SUNNY 72 35 26 S5 30.08F  
BEATRICE SUNNY 74 46 35 SE8 30.06F  
FALLS CITY SUNNY 74 43 32 VRB5 30.08F  
   
..NORTHERN KANSAS
 
 
 
CITY SKY/WX TMP DP RH WIND PRES REMARKS  
GOODLAND SUNNY 73 54 51 S20 30.00F  
HILL CITY SUNNY 77 58 51 MISG 30.02F  
NORTON CLEAR 75 54 46 SE15 30.00F  
PHILLIPSBURG MOSUNNY 79 57 47 SE12G21 30.02F  
SMITH CENTER SUNNY 75 50 41 SE16 30.03F  
BELOIT MOSUNNY 77 52 41 SE9 30.03F  
HAYS SUNNY 75 59 57 S17 30.03F  
RUSSELL SUNNY 75 60 59 SE12G22 30.02F  
CONCORDIA SUNNY 75 52 44 S10 30.05F  
SALINA SUNNY 78 53 41 SE14 30.05F  
TOPEKA SUNNY 75 42 30 VRB3 30.09F  
 
CLICK HERE TO GO TO PREVIOUS BULLETINS.

The Nexlab NE Page
The Nexlab KS Page Main Text Page